Location: *
(41.7492°S, 135.4150°W)
Time: 18:20:35
(UTC+00:00)

Meteor 2-16 Rocket - Pass Details

Date: 20 September 2021
Orbit: 942 x 956 km, 82.6° (Epoch: 15 October)

Event Time Altitude Azimuth Distance (km) Brightness Sun altitude
Exits shadow 13:19:53 - 344° (NNW) 3,038 6.8 -18.1°
Reaches altitude 10° 13:20:53 10° 342° (NNW) 2,664 6.5 -17.9°
Maximum altitude 13:26:56 66° 260° (W) 1,039 4.4 -16.8°
Drops below altitude 10° 13:33:03 10° 178° (S) 2,693 7.0 -15.7°
Sets 13:35:36 0° 174° (S) 3,644 7.8 -15.3°
